This is the latest recevied weather packets stored in our database for station/object N5ZP. If no packets are shown the sender has not sent any weather packets the latest 10 day(s).
| Time | Temp. | Humidity | Pressure | Rain* | Wind** | Luminosity | Snow |
|---|---|---|---|---|---|---|---|
| 1777555027 | 14.44° C | 87% | 1011.6 hPa | 0 mm | - | 97 W/m² | - |
| 1777554724 | 14.44° C | 87% | 1011.9 hPa | 0 mm | - | 86 W/m² | - |
| 1777554421 | 13.89° C | 88% | 1011.5 hPa | 0 mm | - | 89 W/m² | - |
| 1777554118 | 13.89° C | 88% | 1011.3 hPa | 0 mm | - | 91 W/m² | - |
| 1777553815 | 13.89° C | 88% | 1011.5 hPa | 0 mm | - | 88 W/m² | - |
| 1777553511 | 13.33° C | 88% | 1011.5 hPa | 0 mm | - | 72 W/m² | - |
| 1777553207 | 13.33° C | 88% | 1011.5 hPa | 0 mm | - | 64 W/m² | - |
| 1777552903 | 13.33° C | 88% | 1011.5 hPa | 0 mm | - | 35 W/m² | - |
| 1777552598 | 13.33° C | 88% | 1011.5 hPa | 0 mm | - | 34 W/m² | - |
| 1777552295 | 13.33° C | 89% | 1011.4 hPa | 0 mm | - | 31 W/m² | - |
| 1777551991 | 13.33° C | 89% | 1011.7 hPa | 0 mm | - | 29 W/m² | - |
| 1777551688 | 13.33° C | 89% | 1011.5 hPa | 0 mm | - | 24 W/m² | - |
| 1777551386 | 13.33° C | 89% | 1011.5 hPa | 0 mm | - | 18 W/m² | - |
| 1777551083 | 13.33° C | 89% | 1011.3 hPa | 0 mm | - | 17 W/m² | - |
| 1777550780 | 12.78° C | 89% | 1011.5 hPa | 0 mm | - | 15 W/m² | - |
| 1777550476 | 12.78° C | 89% | 1011.5 hPa | 0 mm | - | 14 W/m² | - |
| 1777550172 | 12.78° C | 89% | 1011.4 hPa | 0 mm | - | 9 W/m² | - |
| 1777549869 | 12.78° C | 89% | 1011.2 hPa | 0 mm | - | 4 W/m² | - |
| 1777549565 | 12.78° C | 89% | 1011.1 hPa | 0 mm | - | 2 W/m² | - |
| 1777549261 | 12.78° C | 89% | 1011.3 hPa | 0 mm | - | 1 W/m² | - |
| 1777548957 | 12.78° C | 89% | 1011.1 hPa | 0 mm | - | 1 W/m² | - |
| 1777548654 | 12.78° C | 88% | 1010.8 hPa | 0 mm | - | 0 W/m² | - |
| 1777548351 | 12.78° C | 88% | 1010.8 hPa | 0 mm | - | 0 W/m² | - |
| 1777548049 | 12.78° C | 88% | 1011.5 hPa | 0 mm | - | 0 W/m² | - |
| 1777547744 | 12.78° C | 88% | 1011.3 hPa | 0 mm | - | 0 W/m² | - |
* Rain latest hour (hover to see other rain measurements)
** Current wind speed in m/s (hover to see current wind gust speed)